Time,TemperatureF,DewpointF,PressureIn,WindDirection,WindDirectionDegrees,WindSpeedMPH,WindSpeedGustMPH,Humidity,HourlyPrecipIn,Conditions,Clouds,dailyrainin,SoftwareType,DateUTC
2013-04-16 00:02:00,48.0,31.0,29.82,SW,224,8.0,28.0,52,0.00,,,0.00,,2013-04-16 07:02:00,
2013-04-16 00:11:00,48.0,31.0,29.82,SW,224,8.0,28.0,52,0.00,,,0.00,,2013-04-16 07:11:00,
2013-04-16 00:21:00,48.0,31.0,29.82,SW,224,8.0,28.0,52,0.00,,,0.00,,2013-04-16 07:21:00,
2013-04-16 00:31:00,47.0,33.0,29.81,SW,228,10.0,22.0,57,0.00,,,0.00,,2013-04-16 07:31:00,
2013-04-16 00:41:00,47.0,33.0,29.81,SW,228,10.0,22.0,57,0.00,,,0.00,,2013-04-16 07:41:00,
2013-04-16 00:53:00,47.0,33.0,29.82,SW,222,10.0,25.0,59,0.00,,,0.00,,2013-04-16 07:53:00,
2013-04-16 01:02:00,47.0,34.0,29.81,SW,222,10.0,22.0,61,0.00,,,0.00,,2013-04-16 08:02:00,
2013-04-16 01:11:00,47.0,34.0,29.81,SW,222,10.0,22.0,61,0.00,,,0.00,,2013-04-16 08:11:00,
2013-04-16 01:21:00,46.0,34.0,29.82,SW,224,12.0,22.0,62,0.00,,,0.00,,2013-04-16 08:21:00,
2013-04-16 01:31:00,46.0,34.0,29.82,SW,234,12.0,22.0,62,0.00,,,0.00,,2013-04-16 08:31:00,
2013-04-16 01:41:00,46.0,34.0,29.82,SW,234,12.0,22.0,62,0.00,,,0.00,,2013-04-16 08:41:00,
2013-04-16 01:52:00,47.0,35.0,29.80,WSW,238,14.0,22.0,64,0.00,,,0.00,,2013-04-16 08:52:00,
2013-04-16 02:01:00,46.0,35.0,29.79,SW,228,10.0,21.0,65,0.00,,,0.00,,2013-04-16 09:01:00,
2013-04-16 02:11:00,46.0,35.0,29.79,SW,228,10.0,21.0,65,0.00,,,0.00,,2013-04-16 09:11:00,
2013-04-16 02:21:00,46.0,35.0,29.79,WSW,241,11.0,22.0,65,0.00,,,0.00,,2013-04-16 09:21:00,
2013-04-16 02:32:00,46.0,33.0,29.78,SW,222,10.0,25.0,61,0.00,,,0.00,,2013-04-16 09:32:00,
2013-04-16 02:52:00,45.0,32.0,29.79,SW,230,9.0,21.0,61,0.00,,,0.00,,2013-04-16 09:52:00,
2013-04-16 03:03:00,45.0,32.0,29.78,SW,215,9.0,23.0,59,0.00,,,0.00,,2013-04-16 10:03:00,
2013-04-16 03:12:00,45.0,32.0,29.78,SW,215,9.0,23.0,59,0.00,,,0.00,,2013-04-16 10:12:00,
2013-04-16 03:22:00,45.0,31.0,29.78,SW,226,8.0,24.0,58,0.00,,,0.00,,2013-04-16 10:22:00,
2013-04-16 03:32:00,45.0,31.0,29.78,SW,226,11.0,22.0,57,0.00,,,0.00,,2013-04-16 10:32:00,
2013-04-16 03:42:00,45.0,31.0,29.78,SW,226,11.0,22.0,57,0.00,,,0.00,,2013-04-16 10:42:00,
2013-04-16 03:52:00,44.0,29.0,29.79,SW,226,10.0,27.0,55,0.00,,,0.00,,2013-04-16 10:52:00,
2013-04-16 04:02:00,44.0,29.0,29.79,WSW,241,9.0,19.0,55,0.00,,,0.00,,2013-04-16 11:02:00,
2013-04-16 04:12:00,44.0,29.0,29.79,WSW,241,9.0,19.0,55,0.00,,,0.00,,2013-04-16 11:12:00,
2013-04-16 04:21:00,44.0,29.0,29.80,SW,225,9.0,23.0,56,0.00,,,0.00,,2013-04-16 11:21:00,
2013-04-16 04:32:00,43.0,29.0,29.79,SW,233,7.0,18.0,57,0.00,,,0.00,,2013-04-16 11:32:00,
2013-04-16 04:42:00,43.0,29.0,29.79,SW,233,7.0,18.0,57,0.00,,,0.00,,2013-04-16 11:42:00,
2013-04-16 04:52:00,43.0,29.0,29.80,WSW,238,12.0,22.0,58,0.00,,,0.00,,2013-04-16 11:52:00,
2013-04-16 05:02:00,43.0,30.0,29.79,SW,232,8.0,22.0,59,0.00,,,0.00,,2013-04-16 12:02:00,
2013-04-16 05:12:00,43.0,30.0,29.79,SW,232,8.0,22.0,59,0.00,,,0.00,,2013-04-16 12:12:00,
2013-04-16 05:21:00,43.0,30.0,29.79,SW,232,8.0,22.0,59,0.00,,,0.00,,2013-04-16 12:21:00,
2013-04-16 05:32:00,42.0,30.0,29.79,WSW,237,8.0,19.0,61,0.00,,,0.00,,2013-04-16 12:32:00,
2013-04-16 05:41:00,42.0,30.0,29.79,WSW,237,8.0,19.0,61,0.00,,,0.00,,2013-04-16 12:41:00,
2013-04-16 05:52:00,42.0,30.0,29.79,SW,232,14.0,22.0,61,0.00,,,0.00,,2013-04-16 12:52:00,
2013-04-16 06:02:00,42.0,30.0,29.79,SW,232,14.0,22.0,61,0.00,,,0.00,,2013-04-16 13:02:00,
2013-04-16 06:11:00,42.0,30.0,29.79,SW,232,14.0,22.0,61,0.00,,,0.00,,2013-04-16 13:11:00,
2013-04-16 06:22:00,42.0,31.0,29.80,SW,228,9.0,21.0,64,0.00,,,0.00,,2013-04-16 13:22:00,
2013-04-16 06:32:00,42.0,31.0,29.80,SW,224,9.0,20.0,65,0.00,,,0.00,,2013-04-16 13:32:00,
2013-04-16 06:42:00,42.0,31.0,29.80,SW,224,9.0,20.0,65,0.00,,,0.00,,2013-04-16 13:42:00,
2013-04-16 06:52:00,42.0,31.0,29.79,SW,224,8.0,18.0,65,0.00,,,0.00,,2013-04-16 13:52:00,
2013-04-16 07:02:00,43.0,32.0,29.79,SW,214,9.0,23.0,65,0.00,,,0.00,,2013-04-16 14:02:00,
2013-04-16 07:11:00,43.0,32.0,29.79,SW,214,9.0,23.0,65,0.00,,,0.00,,2013-04-16 14:11:00,
2013-04-16 07:22:00,43.0,32.0,29.80,SSW,202,9.0,24.0,65,0.00,,,0.00,,2013-04-16 14:22:00,
2013-04-16 07:32:00,44.0,33.0,29.79,SW,226,7.0,17.0,65,0.00,,,0.00,,2013-04-16 14:32:00,
2013-04-16 07:41:00,44.0,33.0,29.79,SW,226,7.0,17.0,65,0.00,,,0.00,,2013-04-16 14:41:00,
2013-04-16 07:52:00,44.0,32.0,29.80,SW,221,14.0,26.0,63,0.00,,,0.00,,2013-04-16 14:52:00,
2013-04-16 08:01:00,44.0,32.0,29.80,SW,217,11.0,26.0,62,0.00,,,0.00,,2013-04-16 15:01:00,
2013-04-16 08:12:00,44.0,32.0,29.80,SW,217,11.0,26.0,62,0.00,,,0.00,,2013-04-16 15:12:00,
2013-04-16 08:21:00,45.0,32.0,29.80,SW,232,11.0,23.0,59,0.00,,,0.00,,2013-04-16 15:21:00,
2013-04-16 08:32:00,45.0,32.0,29.80,SW,232,11.0,23.0,59,0.00,,,0.00,,2013-04-16 15:32:00,
2013-04-16 08:43:00,45.0,32.0,29.80,SW,232,11.0,23.0,59,0.00,,,0.00,,2013-04-16 15:43:00,
2013-04-16 08:53:00,45.0,32.0,29.80,SW,232,11.0,23.0,59,0.00,,,0.00,,2013-04-16 15:53:00,
2013-04-16 09:03:00,46.0,31.0,29.80,SW,218,19.0,34.0,56,0.00,,,0.00,,2013-04-16 16:03:00,
2013-04-16 09:13:00,46.0,31.0,29.80,SW,218,19.0,34.0,56,0.00,,,0.00,,2013-04-16 16:13:00,
2013-04-16 09:23:00,46.0,31.0,29.79,SW,221,17.0,34.0,55,0.00,,,0.00,,2013-04-16 16:23:00,
2013-04-16 09:32:00,47.0,30.0,29.80,SSW,212,17.0,32.0,51,0.00,,,0.00,,2013-04-16 16:32:00,
2013-04-16 09:41:00,47.0,30.0,29.80,SSW,212,17.0,32.0,51,0.00,,,0.00,,2013-04-16 16:41:00,
2013-04-16 09:52:00,47.0,30.0,29.80,SSW,212,17.0,32.0,51,0.00,,,0.00,,2013-04-16 16:52:00,
2013-04-16 10:02:00,49.0,30.0,29.80,SW,214,14.0,33.0,48,0.00,,,0.00,,2013-04-16 17:02:00,
2013-04-16 10:11:00,49.0,30.0,29.80,SW,214,14.0,33.0,48,0.00,,,0.00,,2013-04-16 17:11:00,
2013-04-16 10:22:00,49.0,30.0,29.80,SW,228,13.0,35.0,48,0.00,,,0.00,,2013-04-16 17:22:00,
2013-04-16 10:32:00,50.0,30.0,29.79,SW,233,15.0,31.0,46,0.00,,,0.00,,2013-04-16 17:32:00,
2013-04-16 10:43:00,50.0,30.0,29.79,SW,233,15.0,31.0,46,0.00,,,0.00,,2013-04-16 17:43:00,
2013-04-16 10:53:00,50.0,31.0,29.80,SW,217,12.0,34.0,47,0.00,,,0.00,,2013-04-16 17:53:00,
2013-04-16 11:01:00,51.0,30.0,29.80,SW,221,13.0,33.0,44,0.00,,,0.00,,2013-04-16 18:01:00,
2013-04-16 11:11:00,50.0,28.0,29.79,SW,229,19.0,40.0,42,0.00,,,0.00,,2013-04-16 18:11:00,
2013-04-16 11:22:00,50.0,28.0,29.79,SW,229,19.0,40.0,42,0.00,,,0.00,,2013-04-16 18:22:00,
2013-04-16 11:31:00,51.0,28.0,29.79,SW,223,16.0,41.0,41,0.00,,,0.00,,2013-04-16 18:31:00,
2013-04-16 11:42:00,51.0,28.0,29.79,SW,223,16.0,41.0,41,0.00,,,0.00,,2013-04-16 18:42:00,
2013-04-16 11:52:00,51.0,30.0,29.79,SSW,208,13.0,41.0,44,0.00,,,0.00,,2013-04-16 18:52:00,
2013-04-16 12:01:00,51.0,29.0,29.79,SW,222,13.0,35.0,42,0.00,,,0.00,,2013-04-16 19:01:00,
2013-04-16 12:11:00,51.0,29.0,29.79,SW,222,13.0,35.0,42,0.00,,,0.00,,2013-04-16 19:11:00,
2013-04-16 12:21:00,51.0,29.0,29.79,SW,222,13.0,35.0,42,0.00,,,0.00,,2013-04-16 19:21:00,
2013-04-16 12:32:00,51.0,29.0,29.78,WSW,237,18.0,35.0,43,0.00,,,0.00,,2013-04-16 19:32:00,
2013-04-16 12:41:00,51.0,29.0,29.78,WSW,237,18.0,35.0,43,0.00,,,0.00,,2013-04-16 19:41:00,
2013-04-16 12:52:00,52.0,31.0,29.78,SSW,207,13.0,29.0,45,0.00,,,0.00,,2013-04-16 19:52:00,
2013-04-16 13:02:00,53.0,31.0,29.78,SSW,212,9.0,30.0,43,0.00,,,0.00,,2013-04-16 20:02:00,
2013-04-16 13:11:00,53.0,31.0,29.78,SSW,212,9.0,30.0,43,0.00,,,0.00,,2013-04-16 20:11:00,
2013-04-16 13:21:00,53.0,28.0,29.78,SW,214,9.0,35.0,38,0.00,,,0.00,,2013-04-16 20:21:00,
2013-04-16 13:32:00,53.0,28.0,29.78,SW,214,9.0,35.0,38,0.00,,,0.00,,2013-04-16 20:32:00,
2013-04-16 13:42:00,53.0,28.0,29.78,SW,214,9.0,35.0,38,0.00,,,0.00,,2013-04-16 20:42:00,
2013-04-16 13:52:00,53.0,28.0,29.78,SW,214,9.0,35.0,38,0.00,,,0.00,,2013-04-16 20:52:00,
2013-04-16 14:01:00,53.0,24.0,29.78,SW,236,19.0,33.0,32,0.00,,,0.00,,2013-04-16 21:01:00,
2013-04-16 14:12:00,53.0,24.0,29.78,SW,236,19.0,33.0,32,0.00,,,0.00,,2013-04-16 21:12:00,
2013-04-16 14:22:00,53.0,25.0,29.78,SW,232,13.0,36.0,34,0.00,,,0.00,,2013-04-16 21:22:00,
2013-04-16 14:32:00,53.0,25.0,29.78,SW,232,13.0,36.0,34,0.00,,,0.00,,2013-04-16 21:32:00,
2013-04-16 14:42:00,53.0,25.0,29.78,SW,232,13.0,36.0,34,0.00,,,0.00,,2013-04-16 21:42:00,
2013-04-16 14:52:00,53.0,22.0,29.80,SW,224,16.0,34.0,30,0.00,,,0.00,,2013-04-16 21:52:00,
2013-04-16 15:02:00,52.0,22.0,29.79,SSW,211,13.0,34.0,30,0.00,,,0.00,,2013-04-16 22:02:00,
2013-04-16 15:12:00,52.0,22.0,29.79,SSW,211,13.0,34.0,30,0.00,,,0.00,,2013-04-16 22:12:00,
2013-04-16 15:22:00,53.0,22.0,29.79,SW,219,15.0,39.0,30,0.00,,,0.00,,2013-04-16 22:22:00,
2013-04-16 15:32:00,52.0,22.0,29.79,SW,220,14.0,37.0,31,0.00,,,0.00,,2013-04-16 22:32:00,
2013-04-16 15:42:00,52.0,22.0,29.79,SW,220,14.0,37.0,31,0.00,,,0.00,,2013-04-16 22:42:00,
2013-04-16 15:52:00,52.0,23.0,29.77,SSW,213,17.0,37.0,32,0.00,,,0.00,,2013-04-16 22:52:00,
2013-04-16 16:02:00,52.0,23.0,29.77,SSW,211,18.0,38.0,32,0.00,,,0.00,,2013-04-16 23:02:00,
2013-04-16 16:11:00,52.0,23.0,29.77,SSW,211,18.0,38.0,32,0.00,,,0.00,,2013-04-16 23:11:00,
2013-04-16 16:21:00,52.0,26.0,29.77,SW,217,14.0,35.0,36,0.00,,,0.00,,2013-04-16 23:21:00,
2013-04-16 16:31:00,52.0,26.0,29.77,SW,217,14.0,35.0,36,0.00,,,0.00,,2013-04-16 23:31:00,
2013-04-16 16:42:00,52.0,26.0,29.77,SW,217,14.0,35.0,36,0.00,,,0.00,,2013-04-16 23:42:00,
2013-04-16 16:50:00,49.0,24.0,29.78,SSW,209,9.0,30.0,37,0.00,,,0.00,,2013-04-16 23:50:00,
2013-04-16 16:52:00,51.0,26.0,29.78,SSW,210,18.0,31.0,37,0.00,,,0.00,,2013-04-16 23:52:00,
2013-04-16 17:01:00,50.0,26.0,29.78,SW,228,12.0,25.0,39,0.00,,,0.00,,2013-04-17 00:01:00,
2013-04-16 17:12:00,50.0,26.0,29.78,SW,228,12.0,25.0,39,0.00,,,0.00,,2013-04-17 00:12:00,
2013-04-16 17:22:00,49.0,24.0,29.78,SSW,209,9.0,30.0,37,0.00,,,0.00,,2013-04-17 00:22:00,
2013-04-16 17:32:00,49.0,24.0,29.78,SSW,209,9.0,30.0,37,0.00,,,0.00,,2013-04-17 00:32:00,
2013-04-16 17:42:00,49.0,24.0,29.78,SSW,209,9.0,30.0,37,0.00,,,0.00,,2013-04-17 00:42:00,
2013-04-16 18:02:00,50.0,20.0,29.78,SSW,199,9.0,25.0,30,0.00,,,0.00,,2013-04-17 01:02:00,
2013-04-16 18:12:00,50.0,20.0,29.78,SSW,199,9.0,25.0,30,0.00,,,0.00,,2013-04-17 01:12:00,
2013-04-16 18:22:00,49.0,17.0,29.78,SSW,213,10.0,25.0,28,0.00,,,0.00,,2013-04-17 01:22:00,
2013-04-16 18:32:00,48.0,17.0,29.79,SSW,209,8.0,30.0,29,0.00,,,0.00,,2013-04-17 01:32:00,
2013-04-16 18:41:00,48.0,17.0,29.79,SSW,209,8.0,30.0,29,0.00,,,0.00,,2013-04-17 01:41:00,
2013-04-16 18:52:00,47.0,17.0,29.79,SSW,207,7.0,20.0,30,0.00,,,0.00,,2013-04-17 01:52:00,
2013-04-16 19:01:00,47.0,18.0,29.80,SSW,201,8.0,24.0,31,0.00,,,0.00,,2013-04-17 02:01:00,
2013-04-16 19:11:00,47.0,18.0,29.80,SSW,201,8.0,24.0,31,0.00,,,0.00,,2013-04-17 02:11:00,
2013-04-16 19:21:00,46.0,18.0,29.81,SSW,213,11.0,17.0,32,0.00,,,0.00,,2013-04-17 02:21:00,
2013-04-16 19:32:00,46.0,19.0,29.80,SSW,209,9.0,22.0,33,0.00,,,0.00,,2013-04-17 02:32:00,
2013-04-16 19:42:00,46.0,19.0,29.80,SSW,209,9.0,22.0,33,0.00,,,0.00,,2013-04-17 02:42:00,
2013-04-16 19:52:00,46.0,17.0,29.81,SW,219,11.0,24.0,31,0.00,,,0.00,,2013-04-17 02:52:00,
2013-04-16 20:02:00,45.0,16.0,29.82,SSW,207,8.0,21.0,31,0.00,,,0.00,,2013-04-17 03:02:00,
2013-04-16 20:12:00,45.0,16.0,29.82,SSW,207,8.0,21.0,31,0.00,,,0.00,,2013-04-17 03:12:00,
2013-04-16 20:21:00,45.0,17.0,29.82,SW,218,9.0,19.0,32,0.00,,,0.00,,2013-04-17 03:21:00,
2013-04-16 20:32:00,45.0,18.0,29.83,SSW,213,8.0,18.0,34,0.00,,,0.00,,2013-04-17 03:32:00,
2013-04-16 20:42:00,45.0,18.0,29.83,SSW,213,8.0,18.0,34,0.00,,,0.00,,2013-04-17 03:42:00,
2013-04-16 20:53:00,44.0,21.0,29.84,West,262,5.0,17.0,40,0.00,,,0.00,,2013-04-17 03:53:00,
2013-04-16 21:02:00,43.0,23.0,29.85,WSW,251,8.0,13.0,44,0.00,,,0.00,,2013-04-17 04:02:00,
2013-04-16 21:12:00,43.0,23.0,29.85,WSW,251,8.0,13.0,44,0.00,,,0.00,,2013-04-17 04:12:00,
2013-04-16 21:22:00,42.0,22.0,29.85,SW,219,3.0,15.0,45,0.00,,,0.00,,2013-04-17 04:22:00,
2013-04-16 21:32:00,41.0,22.0,29.86,West,260,3.0,11.0,46,0.00,,,0.00,,2013-04-17 04:32:00,
2013-04-16 21:42:00,41.0,22.0,29.86,West,260,3.0,11.0,46,0.00,,,0.00,,2013-04-17 04:42:00,
2013-04-16 21:52:00,41.0,22.0,29.86,North,0,0.0,7.0,46,0.00,,,0.00,,2013-04-17 04:52:00,
2013-04-16 22:02:00,41.0,22.0,29.84,SW,232,3.0,8.0,46,0.00,,,0.00,,2013-04-17 05:02:00,
2013-04-16 22:12:00,41.0,22.0,29.84,SW,232,3.0,8.0,46,0.00,,,0.00,,2013-04-17 05:12:00,
2013-04-16 22:22:00,41.0,22.0,29.83,SSW,193,3.0,10.0,46,0.00,,,0.00,,2013-04-17 05:22:00,
2013-04-16 22:32:00,40.0,21.0,29.83,SSW,207,4.0,9.0,47,0.00,,,0.00,,2013-04-17 05:32:00,
2013-04-16 22:42:00,40.0,21.0,29.83,SSW,207,4.0,9.0,47,0.00,,,0.00,,2013-04-17 05:42:00,
2013-04-16 22:52:00,39.0,21.0,29.83,SSW,200,3.0,10.0,48,0.00,,,0.00,,2013-04-17 05:52:00,
2013-04-16 23:02:00,36.0,20.0,29.84,South,171,1.0,6.0,52,0.00,,,0.00,,2013-04-17 06:02:00,
2013-04-16 23:12:00,36.0,20.0,29.84,South,171,1.0,6.0,52,0.00,,,0.00,,2013-04-17 06:12:00,
2013-04-16 23:22:00,36.0,20.0,29.84,SW,221,1.0,6.0,52,0.00,,,0.00,,2013-04-17 06:22:00,
2013-04-16 23:32:00,36.0,20.0,29.84,SW,218,2.0,6.0,51,0.00,,,0.00,,2013-04-17 06:32:00,
2013-04-16 23:42:00,36.0,20.0,29.84,SW,218,2.0,6.0,51,0.00,,,0.00,,2013-04-17 06:42:00,
2013-04-16 23:52:00,36.0,20.0,29.84,North,0,0.0,6.0,51,0.00,,,0.00,,2013-04-17 06:52:00,